Torna al catalogo

STARLINK-35516

AttivoComunicazioniVLEO
NORAD 65918·PAYLOAD·🇺🇸 United States

Lanciato Oct 8, 2025 da Vandenberg Space Force Base

Loading…

Prossimi Passaggi (prossime 24 ore)

TLE

AggiornatoSource: CelesTrak SupGP

Epoca: Sep 14, 2026, 23:00 UTC

1 65918C 25225J   26257.95881944 -.00007745  00000+0 -22879-3 0  2577
2 65918  53.1593   5.7800 0001111  71.3728  44.0417 15.34398732    15

Traccia STARLINK-35516 in tempo reale con AllMySat

Download on the App Store